Weather History for Dublin, VA

Change the Weather History Date:

Friday, February 7, 2014

  Actual Average (KBCB) Record (KBCB)
Temperature  
Mean Temperature 31 °F 33 °F  
Max Temperature 39 °F 43 °F 64 °F (1990)
Min Temperature 23 °F 23 °F 0 °F (1978)
Degree Days  
Heating Degree Days 34 32  
Month to date heating degree days 227  
Since 1 July heating degree days 3414  
Cooling Degree Days 0 0  
Month to date cooling degree days 0  
Year to date cooling degree days 0  
Moisture  
Dew Point 19 °F    
Average Humidity 68    
Maximum Humidity 86    
Minimum Humidity 45    
Precipitation  
Precipitation 0.00 in 0.10 in 0.90 in (1979)
Month to date precipitation 0.70  
Year to date precipitation 3.78  
Snow  
Snow 0.00 in - - ()
Month to date snowfall  
Since 1 July snowfall  
Snow Depth -    
Sea Level Pressure  
Sea Level Pressure 30.26 in    
Wind  
Wind Speed 2 mph (WNW)    
Max Wind Speed 8 mph    
Max Gust Speed -    
Visibility 10 miles    
Events      
T = Trace of Precipitation, MM = Missing Value Source: NWS Daily Summary

Daily Weather History Graph

Daily Weather History Graph

Search for Another Location

Airport:

Trip Planner

Search our weather history database for the weather conditions in past years. The results will help you decide how hot, cold, wet, or windy it might be!

Date:

Astronomy

Feb. 07, 2014 Rise Set
Actual Time 7:20 AM EST 5:54 PM EST
Civil Twilight 6:53 AM EST 6:21 PM EST
Nautical Twilight 6:22 AM EST 6:52 PM EST
Astronomical Twilight 5:51 AM EST 7:22 PM EST
Moon 12:05 PM EST (2/7) 1:33 AM EST (2/7)
Length of Visible Light 11h 28m
Length of Day
10h 34m
First Quarter, 59% of the Moon is Illuminated
Feb 7
First Quarter
Feb 14
Full
Feb 22
Last Quarter
Mar 1
New
Mar 8
First Quarter

Hourly Weather History & Observations

Time (EST) Temp. Windchill Dew Point Humidity Pressure Visibility Wind Dir Wind Speed Gust Speed Precip Events Conditions
12:15 AM 26.6 °F - 19.4 °F 74% 30.25 in 10.0 mi Calm Calm - N/A   Scattered Clouds
12:35 AM 26.6 °F - 19.4 °F 74% 30.24 in 10.0 mi Calm Calm - N/A   Scattered Clouds
12:55 AM 24.8 °F - 19.4 °F 80% 30.24 in 10.0 mi Calm Calm - N/A   Mostly Cloudy
1:15 AM 24.8 °F - 19.4 °F 80% 30.23 in 10.0 mi Calm Calm - N/A   Mostly Cloudy
1:35 AM 24.8 °F - 19.4 °F 80% 30.23 in 10.0 mi Calm Calm - N/A   Scattered Clouds
1:55 AM 24.8 °F - 19.4 °F 80% 30.24 in 10.0 mi Calm Calm - N/A   Clear
2:15 AM 23.0 °F - 19.4 °F 86% 30.24 in 10.0 mi Calm Calm - N/A   Scattered Clouds
2:35 AM 23.0 °F - 19.4 °F 86% 30.23 in 10.0 mi Calm Calm - N/A   Mostly Cloudy
2:55 AM 24.8 °F - 19.4 °F 80% 30.23 in 10.0 mi Calm Calm - N/A   Overcast
3:15 AM 24.8 °F - 19.4 °F 80% 30.23 in 10.0 mi Calm Calm - N/A   Overcast
3:35 AM 24.8 °F 20.5 °F 19.4 °F 80% 30.23 in 10.0 mi NW 3.5 mph - N/A   Overcast
3:55 AM 24.8 °F - 19.4 °F 80% 30.24 in 10.0 mi Calm Calm - N/A   Scattered Clouds
4:15 AM 23.0 °F 18.4 °F 19.4 °F 86% 30.24 in 10.0 mi WNW 3.5 mph - N/A   Clear
4:35 AM 23.0 °F - 19.4 °F 86% 30.25 in 10.0 mi Calm Calm - N/A   Scattered Clouds
4:55 AM 23.0 °F - 19.4 °F 86% 30.25 in 10.0 mi Calm Calm - N/A   Scattered Clouds
5:15 AM 24.8 °F 19.1 °F 21.2 °F 86% 30.26 in 10.0 mi WNW 4.6 mph - N/A   Clear
5:35 AM 24.8 °F 17.9 °F 19.4 °F 80% 30.27 in 10.0 mi NW 5.8 mph - N/A   Mostly Cloudy
5:55 AM 24.8 °F 19.1 °F 19.4 °F 80% 30.27 in 10.0 mi WNW 4.6 mph - N/A   Mostly Cloudy
6:15 AM 24.8 °F 16.1 °F 19.4 °F 80% 30.26 in 10.0 mi WNW 8.1 mph - N/A   Mostly Cloudy
6:35 AM 24.8 °F 17.9 °F 19.4 °F 80% 30.27 in 10.0 mi WNW 5.8 mph - N/A   Overcast
6:55 AM 24.8 °F 16.9 °F 19.4 °F 80% 30.26 in 10.0 mi WNW 6.9 mph - N/A   Overcast
7:15 AM 24.8 °F 16.1 °F 19.4 °F 80% 30.26 in 10.0 mi WNW 8.1 mph - N/A   Overcast
7:35 AM 24.8 °F 16.9 °F 19.4 °F 80% 30.27 in 10.0 mi WNW 6.9 mph - N/A   Overcast
7:55 AM 24.8 °F 19.1 °F 19.4 °F 80% 30.26 in 10.0 mi WNW 4.6 mph - N/A   Overcast
8:15 AM 26.6 °F 19.1 °F 19.4 °F 74% 30.27 in 10.0 mi WNW 6.9 mph - N/A   Overcast
8:16 AM 26.6 °F 19.1 °F 19.4 °F 74% 30.27 in 10.0 mi WNW 6.9 mph - N/A   Overcast
8:35 AM 26.6 °F 20.0 °F 19.4 °F 74% 30.28 in 10.0 mi West 5.8 mph - N/A   Overcast
8:55 AM 26.6 °F 20.0 °F 19.4 °F 74% 30.29 in 10.0 mi WNW 5.8 mph - N/A   Overcast
9:15 AM 26.6 °F 19.1 °F 19.4 °F 74% 30.30 in 10.0 mi West 6.9 mph - N/A   Overcast
9:35 AM 26.6 °F 19.1 °F 19.4 °F 74% 30.32 in 10.0 mi West 6.9 mph - N/A   Overcast
9:55 AM 26.6 °F 19.1 °F 19.4 °F 74% 30.32 in 10.0 mi West 6.9 mph - N/A   Overcast
10:15 AM 28.4 °F 21.2 °F 19.4 °F 69% 30.31 in 10.0 mi WNW 6.9 mph - N/A   Overcast
10:17 AM 28.4 °F 20.4 °F 19.4 °F 69% 30.31 in 10.0 mi WNW 8.1 mph - N/A   Overcast
10:35 AM 28.4 °F 23.3 °F 19.4 °F 69% 30.31 in 10.0 mi WNW 4.6 mph - N/A   Overcast
10:55 AM 28.4 °F 21.2 °F 19.4 °F 69% 30.31 in 10.0 mi WNW 6.9 mph - N/A   Mostly Cloudy
11:15 AM 30.2 °F 24.3 °F 19.4 °F 64% 30.30 in 10.0 mi West 5.8 mph - N/A   Scattered Clouds
11:35 AM 30.2 °F 26.7 °F 19.4 °F 64% 30.30 in 10.0 mi West 3.5 mph - N/A   Clear
11:55 AM 30.2 °F - 19.4 °F 64% 30.29 in 10.0 mi Calm Calm - N/A   Clear
12:15 PM 32.0 °F 28.7 °F 19.4 °F 60% 30.29 in 10.0 mi West 3.5 mph - N/A   Clear
12:35 PM 32.0 °F 27.5 °F 19.4 °F 60% 30.27 in 10.0 mi West 4.6 mph - N/A   Clear
12:55 PM 33.8 °F 29.6 °F 19.4 °F 56% 30.26 in 10.0 mi WNW 4.6 mph - N/A   Clear
1:15 PM 33.8 °F - 19.4 °F 56% 30.25 in 10.0 mi Calm Calm - N/A   Clear
1:35 PM 35.6 °F 31.7 °F 19.4 °F 52% 30.25 in 10.0 mi WSW 4.6 mph - N/A   Clear
1:55 PM 35.6 °F - 19.4 °F 52% 30.23 in 10.0 mi Calm Calm - N/A   Clear
2:15 PM 35.6 °F 31.7 °F 19.4 °F 52% 30.23 in 10.0 mi West 4.6 mph - N/A   Clear
2:35 PM 37.4 °F 31.4 °F 19.4 °F 48% 30.23 in 10.0 mi West 8.1 mph - N/A   Clear
2:55 PM 37.4 °F 32.1 °F 19.4 °F 48% 30.22 in 10.0 mi WNW 6.9 mph - N/A   Clear
3:15 PM 39.2 °F 35.9 °F 19.4 °F 45% 30.22 in 10.0 mi WNW 4.6 mph - N/A   Clear
3:35 PM 39.2 °F 35.9 °F 19.4 °F 45% 30.22 in 10.0 mi WNW 4.6 mph - N/A   Clear
3:55 PM 39.2 °F 35.9 °F 19.4 °F 45% 30.22 in 10.0 mi NW 4.6 mph - N/A   Clear
4:15 PM 39.2 °F 35.9 °F 19.4 °F 45% 30.22 in 10.0 mi WNW 4.6 mph - N/A   Clear
4:35 PM 39.2 °F 37.0 °F 19.4 °F 45% 30.22 in 10.0 mi West 3.5 mph - N/A   Clear
4:55 PM 39.2 °F 35.9 °F 21.2 °F 49% 30.22 in 10.0 mi West 4.6 mph - N/A   Clear
5:15 PM 37.4 °F 34.9 °F 19.4 °F 48% 30.23 in 10.0 mi North 3.5 mph - N/A   Clear
5:35 PM 35.6 °F 32.8 °F 19.4 °F 52% 30.24 in 10.0 mi NNW 3.5 mph - N/A   Clear
5:55 PM 35.6 °F 31.7 °F 19.4 °F 52% 30.24 in 10.0 mi NNW 4.6 mph - N/A   Clear
6:15 PM 33.8 °F 29.6 °F 19.4 °F 56% 30.25 in 10.0 mi North 4.6 mph - N/A   Clear
6:35 PM 33.8 °F 30.8 °F 19.4 °F 56% 30.25 in 10.0 mi North 3.5 mph - N/A   Clear
6:37 PM 33.8 °F 30.8 °F 19.4 °F 56% 30.25 in 10.0 mi North 3.5 mph - N/A   Clear
6:55 PM 32.0 °F - 17.6 °F 55% 30.25 in 10.0 mi Calm Calm - N/A   Clear
7:15 PM 30.2 °F - 17.6 °F 60% 30.25 in 10.0 mi Calm Calm - N/A   Clear
7:35 PM 30.2 °F - 17.6 °F 60% 30.25 in 10.0 mi Calm Calm - N/A   Clear
7:36 PM 30.2 °F - 17.6 °F 60% 30.26 in 10.0 mi Calm Calm - N/A   Clear
7:55 PM 30.2 °F - 17.6 °F 60% 30.25 in 10.0 mi Calm Calm - N/A   Clear
7:59 PM 28.4 °F - 17.6 °F 64% 30.25 in 10.0 mi Calm Calm - N/A   Clear
8:15 PM 28.4 °F - 17.6 °F 64% 30.25 in 10.0 mi Calm Calm - N/A   Clear
8:35 PM 28.4 °F - 17.6 °F 64% 30.25 in 10.0 mi Calm Calm - N/A   Clear
8:55 PM 28.4 °F - 17.6 °F 64% 30.26 in 10.0 mi Calm Calm - N/A   Clear
9:15 PM 28.4 °F - 19.4 °F 69% 30.26 in 10.0 mi Calm Calm - N/A   Clear
9:35 PM 26.6 °F - 19.4 °F 74% 30.26 in 10.0 mi Calm Calm - N/A   Clear
9:55 PM 26.6 °F - 19.4 °F 74% 30.25 in 10.0 mi Calm Calm - N/A   Clear
10:15 PM 28.4 °F - 21.2 °F 74% 30.25 in 10.0 mi Calm Calm - N/A   Clear
10:35 PM 26.6 °F - 21.2 °F 80% 30.25 in 10.0 mi Calm Calm - N/A   Clear
10:55 PM 26.6 °F - 21.2 °F 80% 30.25 in 10.0 mi Calm Calm - N/A   Clear
11:15 PM 26.6 °F - 21.2 °F 80% 30.25 in 10.0 mi Calm Calm - N/A   Clear
11:35 PM 26.6 °F - 21.2 °F 80% 30.26 in 10.0 mi Calm Calm - N/A   Clear
11:55 PM 26.6 °F - 21.2 °F 80% 30.25 in 10.0 mi Calm Calm - N/A   Clear
11:57 PM 26.6 °F - 21.2 °F 80% 30.25 in 10.0 mi Calm Calm - N/A   Clear